TimePDT,TemperatureF,Dew PointF,Humidity,Sea Level PressureIn,VisibilityMPH,Wind Direction,Wind SpeedMPH,Gust SpeedMPH,PrecipitationIn,Events,Conditions,WindDirDegrees,DateUTC
12:53 AM,52.0,37.9,59,30.20,10.0,WNW,5.8,-,N/A,,Clear,300,2013-05-04 07:53:00
1:53 AM,53.1,37.9,57,30.20,10.0,West,10.4,-,N/A,,Clear,270,2013-05-04 08:53:00
2:53 AM,51.1,37.0,59,30.19,10.0,West,11.5,-,N/A,,Clear,280,2013-05-04 09:53:00
3:53 AM,53.1,37.0,55,30.19,10.0,West,10.4,-,N/A,,Clear,280,2013-05-04 10:53:00
4:53 AM,55.9,36.0,47,30.19,10.0,NNW,9.2,-,N/A,,Clear,340,2013-05-04 11:53:00
5:53 AM,62.1,34.0,35,30.21,10.0,NNE,11.5,-,N/A,,Partly Cloudy,20,2013-05-04 12:53:00
6:53 AM,64.9,34.0,32,30.22,10.0,NNW,6.9,-,N/A,,Mostly Cloudy,340,2013-05-04 13:53:00
7:53 AM,66.0,36.0,33,30.22,10.0,NNE,9.2,-,N/A,,Scattered Clouds,20,2013-05-04 14:53:00
8:53 AM,71.1,33.1,25,30.22,10.0,NE,12.7,-,N/A,,Partly Cloudy,50,2013-05-04 15:53:00
9:53 AM,72.0,32.0,23,30.22,10.0,NE,19.6,25.3,N/A,,Partly Cloudy,40,2013-05-04 16:53:00
10:53 AM,73.9,30.0,20,30.20,10.0,ENE,21.9,27.6,N/A,,Clear,70,2013-05-04 17:53:00
11:53 AM,75.9,28.0,17,30.19,10.0,NE,12.7,27.6,N/A,,Partly Cloudy,40,2013-05-04 18:53:00
12:53 PM,79.0,30.9,17,30.15,10.0,ENE,17.3,25.3,N/A,,Scattered Clouds,70,2013-05-04 19:53:00
1:53 PM,79.0,28.9,16,30.12,10.0,NNE,12.7,25.3,N/A,,Scattered Clouds,30,2013-05-04 20:53:00
2:53 PM,80.1,28.9,15,30.10,10.0,NE,15.0,25.3,N/A,,Scattered Clouds,50,2013-05-04 21:53:00
3:53 PM,81.0,28.0,14,30.08,10.0,NE,17.3,27.6,N/A,,Scattered Clouds,40,2013-05-04 22:53:00
4:53 PM,80.1,27.0,14,30.05,10.0,NE,20.7,29.9,N/A,,Clear,40,2013-05-04 23:53:00
5:53 PM,80.1,28.0,15,30.03,10.0,NE,12.7,21.9,N/A,,Clear,50,2013-05-05 00:53:00
6:53 PM,78.1,27.0,15,30.01,10.0,NE,12.7,20.7,N/A,,Clear,50,2013-05-05 01:53:00
7:53 PM,75.0,27.0,17,30.01,10.0,NE,11.5,-,N/A,,Clear,50,2013-05-05 02:53:00
8:53 PM,71.1,28.9,21,30.02,10.0,NE,8.1,-,N/A,,Clear,50,2013-05-05 03:53:00
9:53 PM,62.1,30.9,31,30.03,10.0,WNW,3.5,-,N/A,,Clear,290,2013-05-05 04:53:00
10:53 PM,59.0,33.1,38,30.02,10.0,WSW,8.1,-,N/A,,Clear,250,2013-05-05 05:53:00
11:53 PM,53.1,33.1,47,30.02,10.0,West,8.1,-,N/A,,Clear,280,2013-05-05 06:53:00